Location: Clason Point
(40.8136°N, 73.8618°W)
Time: 10:16:50
(UTC+00:00)

Daily predictions for brighter satellites

Satellite Brightness Start Highest point End
(mag) Time Altitude Azimuth Time Altitude Azimuth Time Altitude Azimuth
Cosmos 2184 Rocket 4.4 23:23:14 10° N 23:29:09 44° ENE 23:35:05 10° SSE
Genesis I 3.2 23:27:28 10° NNW 23:31:24 87° NE 23:35:15 10° SSE
H-2A R/B 3.8 23:29:15 10° E 23:31:32 13° ENE 23:33:50 10° NNE
Cosmos 1939 Rocket 3.1 23:32:31 10° SSE 23:36:13 46° ENE 23:39:56 10° N
Envisat 4.1 23:32:39 10° S 23:37:34 49° W 23:42:29 10° NNW
Cosmos 2251 Rocket 3.9 23:32:29 10° N 23:37:41 46° ENE 23:42:49 10° SE
Cosmos 2237 Rocket 4.0 23:38:07 10° NNE 23:41:07 14° NE 23:44:06 10° ENE
GEOS 3 Rocket 3.7 23:37:16 10° SE 23:42:17 61° NE 23:47:20 10° NNW
Cosmos 1536 Rocket 3.7 23:38:37 10° N 23:42:52 52° E 23:47:04 10° SSE
Cosmos 1707 4.5 23:41:33 10° NE 23:43:54 15° ENE 23:45:45 12° ESE
YAOGAN 6 3.9 23:41:38 10° S 23:45:08 45° W 23:48:41 10° NNW
YAOGAN 1 3.4 23:42:16 10° S 23:46:31 55° W 23:50:46 10° NNW
Cosmos 1025 Rocket 3.2 23:44:39 10° N 23:48:49 50° E 23:52:58 10° SSE
CSL-04 Rocket 4.4 23:44:02 10° S 23:49:24 58° W 23:54:53 10° NNW
Cosmos 1378 3.0 23:47:36 10° N 23:51:23 72° E 23:55:06 10° SSE
ADEOS Rocket 4.3 23:46:51 10° NE 23:52:57 28° E 23:59:18 10° SSE
Aureole 1 Rocket 3.7 23:48:16 10° N 23:53:22 42° ENE 23:57:00 12° SE
CZ-2C R/B 4.1 23:50:57 10° NNE 23:55:07 37° E 23:59:13 10° SSE
